Weather History for Kansas City International, MO

Change the Weather History Date:

Tuesday, June 10, 2014

  Actual Average Record
Temperature  
Mean Temperature 65 °F 72 °F  
Max Temperature 70 °F 82 °F 99 °F (1953)
Min Temperature 59 °F 62 °F 47 °F (1988)
Degree Days  
Heating Degree Days 0 0  
Month to date heating degree days 0 7  
Since 1 June heating degree days 0 7  
Since 1 July heating degree days 5785 5131  
Cooling Degree Days 0 7  
Month to date cooling degree days 66 64  
Year to date cooling degree days 227 180  
Since 1 June cooling degree days 66 64  
Growing Degree Days 14 (Base 50)    
Moisture  
Dew Point 58 °F    
Average Humidity 80    
Maximum Humidity 93    
Minimum Humidity 66    
Precipitation  
Precipitation 0.40 in 0.18 in 2.85 in (1939)
Month to date precipitation 3.79 1.79  
Year to date precipitation 12.41 15.62  
Snow  
Snow 0.00 in 0.00 in 0.00 in ()
Month to date snowfall 0.0 0.0  
Since 1 June snowfall 0.0 0.0  
Since 1 July snowfall 26.1 18.8  
Snow Depth 0.00 in    
Sea Level Pressure  
Sea Level Pressure 29.79 in    
Wind  
Wind Speed 14 mph (NNE)    
Max Wind Speed 23 mph    
Max Gust Speed 30 mph    
Visibility 9 miles    
Events Rain    
T = Trace of Precipitation, MM = Missing Value Source: NWS Daily Summary

Daily Weather History Graph

Daily Weather History Graph

Search for Another Location

Airport:

Trip Planner

Search our weather history database for the weather conditions in past years. The results will help you decide how hot, cold, wet, or windy it might be!

Date:

Astronomy

Jun. 10, 2014 Rise Set
Actual Time 5:51 AM CDT 8:45 PM CDT
Civil Twilight 5:19 AM CDT 9:17 PM CDT
Nautical Twilight 4:39 AM CDT 9:57 PM CDT
Astronomical Twilight 3:52 AM CDT 10:44 PM CDT
Moon 6:12 PM CDT (6/10) 3:57 AM CDT (6/10)
Length of Visible Light 15h 57m
Length of Day
14h 53m
Waxing Gibbous, 92% of the Moon is Illuminated
Jun 10
Waxing Gibbous
Jun 12
Full
Jun 19
Last Quarter
Jun 27
New
Jul 5
First Quarter

Hourly Weather History & Observations

Time (CDT) Temp. Dew Point Humidity Pressure Visibility Wind Dir Wind Speed Gust Speed Precip Events Conditions
12:26 AM 63.0 °F 59.0 °F 87% 29.79 in 10.0 mi ENE 9.2 mph - N/A   Overcast
12:53 AM 63.0 °F 60.1 °F 90% 29.77 in 9.0 mi ENE 9.2 mph - 0.00 in Rain Light Rain
1:53 AM 62.1 °F 57.9 °F 86% 29.75 in 10.0 mi NE 10.4 mph - 0.00 in   Mostly Cloudy
2:53 AM 62.1 °F 59.0 °F 90% 29.75 in 8.0 mi NNE 9.2 mph - 0.01 in Rain Light Rain
3:53 AM 63.0 °F 60.1 °F 90% 29.74 in 6.0 mi North 8.1 mph - 0.04 in Rain Light Rain
4:53 AM 62.1 °F 57.0 °F 84% 29.74 in 7.0 mi NNE 17.3 mph 27.6 mph 0.08 in Rain Rain
5:53 AM 62.1 °F 57.9 °F 86% 29.75 in 8.0 mi North 15.0 mph - 0.11 in Rain Light Rain
6:53 AM 61.0 °F 55.9 °F 83% 29.77 in 8.0 mi NNE 21.9 mph 27.6 mph 0.06 in Rain Light Rain
7:53 AM 59.0 °F 55.9 °F 90% 29.78 in 6.0 mi NE 16.1 mph - 0.03 in Rain Light Rain
8:53 AM 60.1 °F 55.9 °F 86% 29.79 in 8.0 mi NE 20.7 mph 28.8 mph 0.01 in Rain Light Rain
9:48 AM 60.8 °F 57.2 °F 88% 29.81 in 6.0 mi NNE 15.0 mph - 0.02 in Rain Light Rain
9:53 AM 60.8 °F 57.2 °F 88% 29.81 in 6.0 mi NNE 15.0 mph - N/A Rain Light Rain
10:53 AM 61.0 °F 57.9 °F 90% 29.81 in 9.0 mi NNE 17.3 mph - 0.01 in Rain Light Rain
11:53 AM 62.6 °F 57.2 °F 82% 29.83 in 10.0 mi NNE 12.7 mph - N/A Rain Light Rain
12:33 PM 63.0 °F 59.0 °F 87% 29.83 in 10.0 mi North 12.7 mph - 0.00 in Rain Light Rain
12:53 PM 64.0 °F 59.0 °F 84% 29.81 in 10.0 mi North 13.8 mph - 0.00 in Rain Light Rain
1:53 PM 64.4 °F 59.0 °F 83% 29.82 in 10.0 mi North 13.8 mph - N/A Rain Light Rain
2:53 PM 66.9 °F 59.0 °F 76% 29.80 in 10.0 mi NNE 17.3 mph 24.2 mph 0.00 in   Mostly Cloudy
4:24 PM 68.0 °F 59.0 °F 73% 29.80 in 10.0 mi North 13.8 mph - N/A   Mostly Cloudy
4:53 PM 68.0 °F 57.0 °F 68% 29.78 in 10.0 mi NNE 16.1 mph 25.3 mph N/A   Mostly Cloudy
5:53 PM 68.0 °F 57.9 °F 70% 29.78 in 10.0 mi North 16.1 mph 23.0 mph N/A   Mostly Cloudy
6:53 PM 66.9 °F 57.0 °F 70% 29.79 in 10.0 mi NNE 12.7 mph - N/A   Mostly Cloudy
7:34 PM 66.0 °F 57.0 °F 73% 29.81 in 10.0 mi NNE 15.0 mph - N/A   Mostly Cloudy
7:53 PM 66.0 °F 57.0 °F 73% 29.80 in 10.0 mi NNE 12.7 mph - N/A   Mostly Cloudy
8:11 PM 66.0 °F 57.0 °F 73% 29.81 in 10.0 mi NNE 12.7 mph - N/A   Mostly Cloudy
8:53 PM 64.0 °F 57.0 °F 78% 29.80 in 10.0 mi NNE 11.5 mph - N/A   Mostly Cloudy
9:53 PM 62.6 °F 55.4 °F 77% 29.82 in 10.0 mi North 6.9 mph - N/A   Partly Cloudy
10:53 PM 61.0 °F 55.9 °F 83% 29.81 in 10.0 mi North 6.9 mph - N/A   Scattered Clouds
11:21 PM 61.0 °F 57.0 °F 87% 29.83 in 10.0 mi North 8.1 mph - N/A   Mostly Cloudy
11:53 PM 62.1 °F 57.9 °F 86% 29.82 in 10.0 mi North 6.9 mph - N/A   Overcast